Regional Weather Roundup
Issued by NWS

Home | Current Version | Previous Version | Graphics & Text | Print | Product List | Glossary On
Versions: 1 2 3 4 5 6 7 8 9 10 11 12 13 14 15 16 17 18 19 20 21 22 23 24 25 26 27 28 29 30 31 32 33 34 35 36 37 38 39 40 41 42 43 44 45 46 47 48 49 50
000
ASUS43 KFSD 020710
RWRSD

WEATHER ROUNDUP FOR SOUTH DAKOTA
NATIONAL WEATHER SERVICE SIOUX FALLS SD
200 AM CDT SUN AUG 02 2015

NOTE: "FAIR" INDICATES FEW OR NO CLOUDS BELOW 12,000 FEET WITH NO
SIGNIFICANT WEATHER AND/OR OBSTRUCTIONS TO VISIBILITY.


SDZ001>005-009-010-012>017-020800-
NORTHWEST AND NORTH CENTRAL SOUTH DAKOTA

CITY           SKY/WX    TMP DP  RH WIND       PRES   REMARKS
BUFFALO          N/A     71  34  25 NW7       29.84R
FAITH            N/A     66  54  65 W5        29.85R
MOBRIDGE       CLEAR     70  53  54 W6        29.76S
$$

SDZ012>016-024>037-041>051-057-063-072>074-020800-
SOUTHWEST AND SOUTH CENTRAL SOUTH DAKOTA

CITY           SKY/WX    TMP DP  RH WIND       PRES   REMARKS
RAPID CTY ARPT CLEAR     69  60  73 S6        29.91F
PIERRE         CLEAR     72  60  66 W10       29.78S
CUSTER         CLEAR     59  52  77 W5        30.11S
PHILIP         CLEAR     70  62  76 W8        29.83F
PINE RIDGE     CLEAR     66  58  75 W3        29.96F
WINNER         FAIR      74  60  61 SW14      29.83F
$$

SDZ004>011-016>023-039-040-020800-
NORTHEAST SOUTH DAKOTA

CITY           SKY/WX    TMP DP  RH WIND       PRES   REMARKS
ABERDEEN       PTCLDY    64  60  87 SW9       29.72R
WATERTOWN      CLEAR     68  63  84 S7        29.72F
BROOKINGS      CLEAR     66  61  82 S9        29.80F
SISSETON         N/A     67  65  93 SW7       29.65F
$$

SDZ017-020-022-023-036>040-048>070-020800-
SOUTHEAST SOUTH DAKOTA

CITY           SKY/WX    TMP DP  RH WIND       PRES   REMARKS
SIOUX FALLS    CLEAR     73  61  65 SW9       29.81F
HURON          CLEAR     71  61  70 W12       29.75S
CHAMBERLAIN    CLEAR     63  60  87 SW6       29.81F
MITCHELL       CLEAR     71  62  73 SW8       29.78F
YANKTON        CLEAR     72  61  68 S7        29.82F
$$

ABBREVIATIONS USED IN REMARKS
   TC - TEMPERATURE IN CELSIUS
  WCI - WIND CHILL INDEX
   HX - HEAT INDEX
  VSB - VISIBILITY




USA.gov is the U.S. government's official web portal to all federal, state and local government web resources and services.